<?xml version="1.0" encoding="UTF-8" standalone="no" ?>
<gpx xmlns="http://www.topografix.com/GPX/1/1" xmlns:xsi="http://www.w3.org/2001/XMLSchema-instance" xsi:schemaLocation="http://www.topografix.com/GPX/1/1 http://www.topografix.com/GPX/1/1/gpx.xsd" version="1.1" creator="VisuGPX - https://www.visugpx.com">
  <metadata>
    <name>le  Hohwald la Rothlach</name>
  </metadata>
  <trk>
    <name><![CDATA[le  Hohwald la Rothlach]]></name>
    <trkseg>
      <trkpt lat="48.40362" lon="7.33183">
        <ele>602</ele>
        <time>2020-05-17T14:00:06Z</time>
      </trkpt>
      <trkpt lat="48.40362" lon="7.33183">
        <ele>602</ele>
        <time>2020-05-17T14:00:06Z</time>
      </trkpt>
      <trkpt lat="48.40369" lon="7.33146">
        <ele>599</ele>
        <time>2020-05-17T14:00:06Z</time>
      </trkpt>
      <trkpt lat="48.40439" lon="7.33165">
        <ele>595</ele>
        <time>2020-05-17T14:00:06Z</time>
      </trkpt>
      <trkpt lat="48.40449" lon="7.33165">
        <ele>593</ele>
        <time>2020-05-17T14:00:06Z</time>
      </trkpt>
      <trkpt lat="48.40462" lon="7.33156">
        <ele>592</ele>
        <time>2020-05-17T14:00:06Z</time>
      </trkpt>
      <trkpt lat="48.40501" lon="7.33221">
        <ele>592</ele>
        <time>2020-05-17T14:00:06Z</time>
      </trkpt>
      <trkpt lat="48.4051" lon="7.3323">
        <ele>593</ele>
        <time>2020-05-17T14:00:06Z</time>
      </trkpt>
      <trkpt lat="48.4051" lon="7.3323">
        <ele>595</ele>
        <time>2020-05-17T14:00:06Z</time>
      </trkpt>
      <trkpt lat="48.40613" lon="7.33386">
        <ele>599</ele>
        <time>2020-05-17T14:00:06Z</time>
      </trkpt>
      <trkpt lat="48.40641" lon="7.33466">
        <ele>604</ele>
        <time>2020-05-17T14:00:06Z</time>
      </trkpt>
      <trkpt lat="48.40641" lon="7.33466">
        <ele>616</ele>
        <time>2020-05-17T14:00:06Z</time>
      </trkpt>
      <trkpt lat="48.40667" lon="7.33599">
        <ele>619</ele>
        <time>2020-05-17T14:00:06Z</time>
      </trkpt>
      <trkpt lat="48.40681" lon="7.33741">
        <ele>624</ele>
        <time>2020-05-17T14:00:06Z</time>
      </trkpt>
      <trkpt lat="48.40722" lon="7.33762">
        <ele>628</ele>
        <time>2020-05-17T14:00:06Z</time>
      </trkpt>
      <trkpt lat="48.40771" lon="7.33762">
        <ele>633</ele>
        <time>2020-05-17T14:00:06Z</time>
      </trkpt>
      <trkpt lat="48.40812" lon="7.33804">
        <ele>636</ele>
        <time>2020-05-17T14:00:06Z</time>
      </trkpt>
      <trkpt lat="48.4078" lon="7.33958">
        <ele>640</ele>
        <time>2020-05-17T14:00:06Z</time>
      </trkpt>
      <trkpt lat="48.40798" lon="7.33954">
        <ele>643</ele>
        <time>2020-05-17T14:00:06Z</time>
      </trkpt>
      <trkpt lat="48.40815" lon="7.33947">
        <ele>645</ele>
        <time>2020-05-17T14:00:06Z</time>
      </trkpt>
      <trkpt lat="48.40815" lon="7.33947">
        <ele>653</ele>
        <time>2020-05-17T14:00:06Z</time>
      </trkpt>
      <trkpt lat="48.40808" lon="7.33948">
        <ele>653</ele>
        <time>2020-05-17T14:00:06Z</time>
      </trkpt>
      <trkpt lat="48.40791" lon="7.33956">
        <ele>652</ele>
        <time>2020-05-17T14:00:06Z</time>
      </trkpt>
      <trkpt lat="48.4078" lon="7.33958">
        <ele>651</ele>
        <time>2020-05-17T14:00:06Z</time>
      </trkpt>
      <trkpt lat="48.40812" lon="7.33804">
        <ele>650</ele>
        <time>2020-05-17T14:00:06Z</time>
      </trkpt>
      <trkpt lat="48.40872" lon="7.33844">
        <ele>651</ele>
        <time>2020-05-17T14:00:06Z</time>
      </trkpt>
      <trkpt lat="48.40885" lon="7.33859">
        <ele>652</ele>
        <time>2020-05-17T14:00:06Z</time>
      </trkpt>
      <trkpt lat="48.40911" lon="7.33927">
        <ele>655</ele>
        <time>2020-05-17T14:00:06Z</time>
      </trkpt>
      <trkpt lat="48.40924" lon="7.33951">
        <ele>657</ele>
        <time>2020-05-17T14:00:06Z</time>
      </trkpt>
      <trkpt lat="48.40938" lon="7.33966">
        <ele>660</ele>
        <time>2020-05-17T14:00:06Z</time>
      </trkpt>
      <trkpt lat="48.40958" lon="7.33974">
        <ele>662</ele>
        <time>2020-05-17T14:00:06Z</time>
      </trkpt>
      <trkpt lat="48.41006" lon="7.33932">
        <ele>665</ele>
        <time>2020-05-17T14:00:06Z</time>
      </trkpt>
      <trkpt lat="48.41023" lon="7.33927">
        <ele>667</ele>
        <time>2020-05-17T14:00:06Z</time>
      </trkpt>
      <trkpt lat="48.41046" lon="7.3393">
        <ele>669</ele>
        <time>2020-05-17T14:00:06Z</time>
      </trkpt>
      <trkpt lat="48.41046" lon="7.3393">
        <ele>678</ele>
        <time>2020-05-17T14:00:06Z</time>
      </trkpt>
      <trkpt lat="48.41221" lon="7.33937">
        <ele>686</ele>
        <time>2020-05-17T14:00:06Z</time>
      </trkpt>
      <trkpt lat="48.41228" lon="7.3393">
        <ele>691</ele>
        <time>2020-05-17T14:00:06Z</time>
      </trkpt>
      <trkpt lat="48.41228" lon="7.3393">
        <ele>704</ele>
        <time>2020-05-17T14:00:06Z</time>
      </trkpt>
      <trkpt lat="48.41241" lon="7.33923">
        <ele>705</ele>
        <time>2020-05-17T14:00:06Z</time>
      </trkpt>
      <trkpt lat="48.41314" lon="7.33916">
        <ele>708</ele>
        <time>2020-05-17T14:00:06Z</time>
      </trkpt>
      <trkpt lat="48.41402" lon="7.33925">
        <ele>712</ele>
        <time>2020-05-17T14:00:06Z</time>
      </trkpt>
      <trkpt lat="48.41402" lon="7.33925">
        <ele>724</ele>
        <time>2020-05-17T14:00:06Z</time>
      </trkpt>
      <trkpt lat="48.41442" lon="7.33952">
        <ele>725</ele>
        <time>2020-05-17T14:00:06Z</time>
      </trkpt>
      <trkpt lat="48.4147" lon="7.33961">
        <ele>726</ele>
        <time>2020-05-17T14:00:06Z</time>
      </trkpt>
      <trkpt lat="48.41483" lon="7.33972">
        <ele>727</ele>
        <time>2020-05-17T14:00:06Z</time>
      </trkpt>
      <trkpt lat="48.41493" lon="7.34">
        <ele>726</ele>
        <time>2020-05-17T14:00:06Z</time>
      </trkpt>
      <trkpt lat="48.4151" lon="7.33988">
        <ele>726</ele>
        <time>2020-05-17T14:00:06Z</time>
      </trkpt>
      <trkpt lat="48.41516" lon="7.33977">
        <ele>725</ele>
        <time>2020-05-17T14:00:06Z</time>
      </trkpt>
      <trkpt lat="48.41516" lon="7.33977">
        <ele>724</ele>
        <time>2020-05-17T14:00:06Z</time>
      </trkpt>
      <trkpt lat="48.41536" lon="7.33951">
        <ele>725</ele>
        <time>2020-05-17T14:00:06Z</time>
      </trkpt>
      <trkpt lat="48.41546" lon="7.33942">
        <ele>727</ele>
        <time>2020-05-17T14:00:06Z</time>
      </trkpt>
      <trkpt lat="48.41594" lon="7.33924">
        <ele>727</ele>
        <time>2020-05-17T14:00:06Z</time>
      </trkpt>
      <trkpt lat="48.41605" lon="7.33926">
        <ele>727</ele>
        <time>2020-05-17T14:00:06Z</time>
      </trkpt>
      <trkpt lat="48.41621" lon="7.33947">
        <ele>726</ele>
        <time>2020-05-17T14:00:06Z</time>
      </trkpt>
      <trkpt lat="48.41621" lon="7.33947">
        <ele>723</ele>
        <time>2020-05-17T14:00:06Z</time>
      </trkpt>
      <trkpt lat="48.41637" lon="7.33965">
        <ele>723</ele>
        <time>2020-05-17T14:00:06Z</time>
      </trkpt>
      <trkpt lat="48.41642" lon="7.33975">
        <ele>723</ele>
        <time>2020-05-17T14:00:06Z</time>
      </trkpt>
      <trkpt lat="48.41641" lon="7.3399">
        <ele>723</ele>
        <time>2020-05-17T14:00:06Z</time>
      </trkpt>
      <trkpt lat="48.41576" lon="7.34226">
        <ele>725</ele>
        <time>2020-05-17T14:00:06Z</time>
      </trkpt>
      <trkpt lat="48.41563" lon="7.34311">
        <ele>728</ele>
        <time>2020-05-17T14:00:06Z</time>
      </trkpt>
      <trkpt lat="48.41554" lon="7.34347">
        <ele>730</ele>
        <time>2020-05-17T14:00:06Z</time>
      </trkpt>
      <trkpt lat="48.41547" lon="7.34355">
        <ele>732</ele>
        <time>2020-05-17T14:00:06Z</time>
      </trkpt>
      <trkpt lat="48.41547" lon="7.34355">
        <ele>737</ele>
        <time>2020-05-17T14:00:06Z</time>
      </trkpt>
      <trkpt lat="48.41516" lon="7.34452">
        <ele>739</ele>
        <time>2020-05-17T14:00:06Z</time>
      </trkpt>
      <trkpt lat="48.41449" lon="7.34506">
        <ele>742</ele>
        <time>2020-05-17T14:00:06Z</time>
      </trkpt>
      <trkpt lat="48.41437" lon="7.34525">
        <ele>744</ele>
        <time>2020-05-17T14:00:06Z</time>
      </trkpt>
      <trkpt lat="48.41433" lon="7.34539">
        <ele>746</ele>
        <time>2020-05-17T14:00:06Z</time>
      </trkpt>
      <trkpt lat="48.41433" lon="7.34539">
        <ele>753</ele>
        <time>2020-05-17T14:00:06Z</time>
      </trkpt>
      <trkpt lat="48.41429" lon="7.34556">
        <ele>753</ele>
        <time>2020-05-17T14:00:06Z</time>
      </trkpt>
      <trkpt lat="48.41434" lon="7.346">
        <ele>754</ele>
        <time>2020-05-17T14:00:06Z</time>
      </trkpt>
      <trkpt lat="48.4143" lon="7.34626">
        <ele>756</ele>
        <time>2020-05-17T14:00:06Z</time>
      </trkpt>
      <trkpt lat="48.41416" lon="7.34762">
        <ele>760</ele>
        <time>2020-05-17T14:00:06Z</time>
      </trkpt>
      <trkpt lat="48.41416" lon="7.34762">
        <ele>773</ele>
        <time>2020-05-17T14:00:06Z</time>
      </trkpt>
      <trkpt lat="48.41418" lon="7.34811">
        <ele>774</ele>
        <time>2020-05-17T14:00:06Z</time>
      </trkpt>
      <trkpt lat="48.41422" lon="7.34826">
        <ele>775</ele>
        <time>2020-05-17T14:00:06Z</time>
      </trkpt>
      <trkpt lat="48.41411" lon="7.34853">
        <ele>776</ele>
        <time>2020-05-17T14:00:06Z</time>
      </trkpt>
      <trkpt lat="48.41409" lon="7.34865">
        <ele>777</ele>
        <time>2020-05-17T14:00:06Z</time>
      </trkpt>
      <trkpt lat="48.4141" lon="7.34878">
        <ele>777</ele>
        <time>2020-05-17T14:00:06Z</time>
      </trkpt>
      <trkpt lat="48.41417" lon="7.34879">
        <ele>778</ele>
        <time>2020-05-17T14:00:06Z</time>
      </trkpt>
      <trkpt lat="48.41422" lon="7.34887">
        <ele>778</ele>
        <time>2020-05-17T14:00:06Z</time>
      </trkpt>
      <trkpt lat="48.41422" lon="7.34898">
        <ele>779</ele>
        <time>2020-05-17T14:00:06Z</time>
      </trkpt>
      <trkpt lat="48.41416" lon="7.34904">
        <ele>779</ele>
        <time>2020-05-17T14:00:06Z</time>
      </trkpt>
      <trkpt lat="48.41416" lon="7.34904">
        <ele>781</ele>
        <time>2020-05-17T14:00:06Z</time>
      </trkpt>
      <trkpt lat="48.41423" lon="7.34896">
        <ele>781</ele>
        <time>2020-05-17T14:00:06Z</time>
      </trkpt>
      <trkpt lat="48.41444" lon="7.34838">
        <ele>781</ele>
        <time>2020-05-17T14:00:06Z</time>
      </trkpt>
      <trkpt lat="48.41455" lon="7.3482">
        <ele>782</ele>
        <time>2020-05-17T14:00:06Z</time>
      </trkpt>
      <trkpt lat="48.41496" lon="7.34788">
        <ele>782</ele>
        <time>2020-05-17T14:00:06Z</time>
      </trkpt>
      <trkpt lat="48.41496" lon="7.34788">
        <ele>786</ele>
        <time>2020-05-17T14:00:06Z</time>
      </trkpt>
      <trkpt lat="48.41484" lon="7.34798">
        <ele>786</ele>
        <time>2020-05-17T14:00:06Z</time>
      </trkpt>
      <trkpt lat="48.41478" lon="7.34765">
        <ele>785</ele>
        <time>2020-05-17T14:00:06Z</time>
      </trkpt>
      <trkpt lat="48.4148" lon="7.34733">
        <ele>784</ele>
        <time>2020-05-17T14:00:06Z</time>
      </trkpt>
      <trkpt lat="48.41518" lon="7.3469">
        <ele>784</ele>
        <time>2020-05-17T14:00:06Z</time>
      </trkpt>
      <trkpt lat="48.41561" lon="7.34663">
        <ele>783</ele>
        <time>2020-05-17T14:00:06Z</time>
      </trkpt>
      <trkpt lat="48.41618" lon="7.34642">
        <ele>783</ele>
        <time>2020-05-17T14:00:06Z</time>
      </trkpt>
      <trkpt lat="48.41618" lon="7.34642">
        <ele>783</ele>
        <time>2020-05-17T14:00:06Z</time>
      </trkpt>
      <trkpt lat="48.41646" lon="7.34622">
        <ele>783</ele>
        <time>2020-05-17T14:00:06Z</time>
      </trkpt>
      <trkpt lat="48.41704" lon="7.34541">
        <ele>783</ele>
        <time>2020-05-17T14:00:06Z</time>
      </trkpt>
      <trkpt lat="48.41725" lon="7.34492">
        <ele>783</ele>
        <time>2020-05-17T14:00:06Z</time>
      </trkpt>
      <trkpt lat="48.41737" lon="7.34412">
        <ele>783</ele>
        <time>2020-05-17T14:00:06Z</time>
      </trkpt>
      <trkpt lat="48.41755" lon="7.34385">
        <ele>784</ele>
        <time>2020-05-17T14:00:06Z</time>
      </trkpt>
      <trkpt lat="48.41755" lon="7.34385">
        <ele>785</ele>
        <time>2020-05-17T14:00:06Z</time>
      </trkpt>
      <trkpt lat="48.41776" lon="7.34359">
        <ele>785</ele>
        <time>2020-05-17T14:00:06Z</time>
      </trkpt>
      <trkpt lat="48.41829" lon="7.34306">
        <ele>786</ele>
        <time>2020-05-17T14:00:06Z</time>
      </trkpt>
      <trkpt lat="48.41857" lon="7.34254">
        <ele>786</ele>
        <time>2020-05-17T14:00:06Z</time>
      </trkpt>
      <trkpt lat="48.41866" lon="7.34222">
        <ele>787</ele>
        <time>2020-05-17T14:00:06Z</time>
      </trkpt>
      <trkpt lat="48.41866" lon="7.34222">
        <ele>788</ele>
        <time>2020-05-17T14:00:06Z</time>
      </trkpt>
      <trkpt lat="48.41873" lon="7.34188">
        <ele>788</ele>
        <time>2020-05-17T14:00:06Z</time>
      </trkpt>
      <trkpt lat="48.41881" lon="7.33887">
        <ele>788</ele>
        <time>2020-05-17T14:00:06Z</time>
      </trkpt>
      <trkpt lat="48.41881" lon="7.33887">
        <ele>787</ele>
        <time>2020-05-17T14:00:06Z</time>
      </trkpt>
      <trkpt lat="48.41884" lon="7.33834">
        <ele>787</ele>
        <time>2020-05-17T14:00:06Z</time>
      </trkpt>
      <trkpt lat="48.41882" lon="7.33812">
        <ele>787</ele>
        <time>2020-05-17T14:00:06Z</time>
      </trkpt>
      <trkpt lat="48.41879" lon="7.33797">
        <ele>787</ele>
        <time>2020-05-17T14:00:06Z</time>
      </trkpt>
      <trkpt lat="48.41873" lon="7.33786">
        <ele>787</ele>
        <time>2020-05-17T14:00:06Z</time>
      </trkpt>
      <trkpt lat="48.41856" lon="7.33766">
        <ele>786</ele>
        <time>2020-05-17T14:00:06Z</time>
      </trkpt>
      <trkpt lat="48.41834" lon="7.33751">
        <ele>786</ele>
        <time>2020-05-17T14:00:06Z</time>
      </trkpt>
      <trkpt lat="48.41787" lon="7.33711">
        <ele>785</ele>
        <time>2020-05-17T14:00:06Z</time>
      </trkpt>
      <trkpt lat="48.41787" lon="7.33711">
        <ele>783</ele>
        <time>2020-05-17T14:00:06Z</time>
      </trkpt>
      <trkpt lat="48.41728" lon="7.33625">
        <ele>785</ele>
        <time>2020-05-17T14:00:06Z</time>
      </trkpt>
      <trkpt lat="48.41714" lon="7.33592">
        <ele>786</ele>
        <time>2020-05-17T14:00:06Z</time>
      </trkpt>
      <trkpt lat="48.41707" lon="7.33565">
        <ele>787</ele>
        <time>2020-05-17T14:00:06Z</time>
      </trkpt>
      <trkpt lat="48.41707" lon="7.33565">
        <ele>791</ele>
        <time>2020-05-17T14:00:06Z</time>
      </trkpt>
      <trkpt lat="48.41699" lon="7.33451">
        <ele>791</ele>
        <time>2020-05-17T14:00:06Z</time>
      </trkpt>
      <trkpt lat="48.41712" lon="7.33307">
        <ele>791</ele>
        <time>2020-05-17T14:00:06Z</time>
      </trkpt>
      <trkpt lat="48.41712" lon="7.33307">
        <ele>791</ele>
        <time>2020-05-17T14:00:06Z</time>
      </trkpt>
      <trkpt lat="48.41713" lon="7.33239">
        <ele>791</ele>
        <time>2020-05-17T14:00:06Z</time>
      </trkpt>
      <trkpt lat="48.41708" lon="7.33209">
        <ele>791</ele>
        <time>2020-05-17T14:00:06Z</time>
      </trkpt>
      <trkpt lat="48.41694" lon="7.3315">
        <ele>791</ele>
        <time>2020-05-17T14:00:06Z</time>
      </trkpt>
      <trkpt lat="48.41694" lon="7.33103">
        <ele>791</ele>
        <time>2020-05-17T14:00:06Z</time>
      </trkpt>
      <trkpt lat="48.41695" lon="7.33089">
        <ele>792</ele>
        <time>2020-05-17T14:00:06Z</time>
      </trkpt>
      <trkpt lat="48.41695" lon="7.33089">
        <ele>792</ele>
        <time>2020-05-17T14:00:06Z</time>
      </trkpt>
      <trkpt lat="48.41703" lon="7.33055">
        <ele>792</ele>
        <time>2020-05-17T14:00:06Z</time>
      </trkpt>
      <trkpt lat="48.41821" lon="7.32793">
        <ele>796</ele>
        <time>2020-05-17T14:00:06Z</time>
      </trkpt>
      <trkpt lat="48.41821" lon="7.32793">
        <ele>803</ele>
        <time>2020-05-17T14:00:06Z</time>
      </trkpt>
      <trkpt lat="48.41909" lon="7.32629">
        <ele>808</ele>
        <time>2020-05-17T14:00:06Z</time>
      </trkpt>
      <trkpt lat="48.41909" lon="7.32629">
        <ele>817</ele>
        <time>2020-05-17T14:00:06Z</time>
      </trkpt>
      <trkpt lat="48.41934" lon="7.32588">
        <ele>818</ele>
        <time>2020-05-17T14:00:06Z</time>
      </trkpt>
      <trkpt lat="48.42005" lon="7.3251">
        <ele>823</ele>
        <time>2020-05-17T14:00:06Z</time>
      </trkpt>
      <trkpt lat="48.42012" lon="7.32501">
        <ele>826</ele>
        <time>2020-05-17T14:00:06Z</time>
      </trkpt>
      <trkpt lat="48.42012" lon="7.32501">
        <ele>835</ele>
        <time>2020-05-17T14:00:06Z</time>
      </trkpt>
      <trkpt lat="48.42088" lon="7.32402">
        <ele>836</ele>
        <time>2020-05-17T14:00:06Z</time>
      </trkpt>
      <trkpt lat="48.42088" lon="7.32402">
        <ele>840</ele>
        <time>2020-05-17T14:00:06Z</time>
      </trkpt>
      <trkpt lat="48.42126" lon="7.32348">
        <ele>840</ele>
        <time>2020-05-17T14:00:06Z</time>
      </trkpt>
      <trkpt lat="48.42199" lon="7.32286">
        <ele>843</ele>
        <time>2020-05-17T14:00:06Z</time>
      </trkpt>
      <trkpt lat="48.42199" lon="7.32286">
        <ele>848</ele>
        <time>2020-05-17T14:00:06Z</time>
      </trkpt>
      <trkpt lat="48.42279" lon="7.32197">
        <ele>850</ele>
        <time>2020-05-17T14:00:06Z</time>
      </trkpt>
      <trkpt lat="48.42308" lon="7.32175">
        <ele>852</ele>
        <time>2020-05-17T14:00:06Z</time>
      </trkpt>
      <trkpt lat="48.42308" lon="7.32175">
        <ele>858</ele>
        <time>2020-05-17T14:00:06Z</time>
      </trkpt>
      <trkpt lat="48.4239" lon="7.32122">
        <ele>862</ele>
        <time>2020-05-17T14:00:06Z</time>
      </trkpt>
      <trkpt lat="48.42439" lon="7.3211">
        <ele>867</ele>
        <time>2020-05-17T14:00:06Z</time>
      </trkpt>
      <trkpt lat="48.42439" lon="7.3211">
        <ele>880</ele>
        <time>2020-05-17T14:00:06Z</time>
      </trkpt>
      <trkpt lat="48.42502" lon="7.32086">
        <ele>888</ele>
        <time>2020-05-17T14:00:06Z</time>
      </trkpt>
      <trkpt lat="48.42513" lon="7.32084">
        <ele>889</ele>
        <time>2020-05-17T14:00:06Z</time>
      </trkpt>
      <trkpt lat="48.42513" lon="7.32084">
        <ele>890</ele>
        <time>2020-05-17T14:00:06Z</time>
      </trkpt>
      <trkpt lat="48.42527" lon="7.32016">
        <ele>891</ele>
        <time>2020-05-17T14:00:06Z</time>
      </trkpt>
      <trkpt lat="48.42559" lon="7.3194">
        <ele>894</ele>
        <time>2020-05-17T14:00:06Z</time>
      </trkpt>
      <trkpt lat="48.42564" lon="7.31917">
        <ele>897</ele>
        <time>2020-05-17T14:00:06Z</time>
      </trkpt>
      <trkpt lat="48.42564" lon="7.31917">
        <ele>905</ele>
        <time>2020-05-17T14:00:06Z</time>
      </trkpt>
      <trkpt lat="48.42596" lon="7.31773">
        <ele>908</ele>
        <time>2020-05-17T14:00:06Z</time>
      </trkpt>
      <trkpt lat="48.42611" lon="7.31752">
        <ele>911</ele>
        <time>2020-05-17T14:00:06Z</time>
      </trkpt>
      <trkpt lat="48.42627" lon="7.3172">
        <ele>914</ele>
        <time>2020-05-17T14:00:06Z</time>
      </trkpt>
      <trkpt lat="48.42627" lon="7.3172">
        <ele>923</ele>
        <time>2020-05-17T14:00:06Z</time>
      </trkpt>
      <trkpt lat="48.42657" lon="7.31638">
        <ele>925</ele>
        <time>2020-05-17T14:00:06Z</time>
      </trkpt>
      <trkpt lat="48.42702" lon="7.31588">
        <ele>929</ele>
        <time>2020-05-17T14:00:06Z</time>
      </trkpt>
      <trkpt lat="48.42737" lon="7.31557">
        <ele>933</ele>
        <time>2020-05-17T14:00:06Z</time>
      </trkpt>
      <trkpt lat="48.42744" lon="7.31542">
        <ele>936</ele>
        <time>2020-05-17T14:00:06Z</time>
      </trkpt>
      <trkpt lat="48.42748" lon="7.31515">
        <ele>939</ele>
        <time>2020-05-17T14:00:06Z</time>
      </trkpt>
      <trkpt lat="48.42752" lon="7.31535">
        <ele>941</ele>
        <time>2020-05-17T14:00:06Z</time>
      </trkpt>
      <trkpt lat="48.42752" lon="7.31535">
        <ele>949</ele>
        <time>2020-05-17T14:00:06Z</time>
      </trkpt>
      <trkpt lat="48.42752" lon="7.31557">
        <ele>949</ele>
        <time>2020-05-17T14:00:06Z</time>
      </trkpt>
      <trkpt lat="48.42752" lon="7.31557">
        <ele>948</ele>
        <time>2020-05-17T14:00:06Z</time>
      </trkpt>
      <trkpt lat="48.42711" lon="7.31735">
        <ele>945</ele>
        <time>2020-05-17T14:00:06Z</time>
      </trkpt>
      <trkpt lat="48.42709" lon="7.31758">
        <ele>943</ele>
        <time>2020-05-17T14:00:06Z</time>
      </trkpt>
      <trkpt lat="48.42709" lon="7.31758">
        <ele>937</ele>
        <time>2020-05-17T14:00:06Z</time>
      </trkpt>
      <trkpt lat="48.42701" lon="7.3199">
        <ele>933</ele>
        <time>2020-05-17T14:00:06Z</time>
      </trkpt>
      <trkpt lat="48.42701" lon="7.3199">
        <ele>926</ele>
        <time>2020-05-17T14:00:06Z</time>
      </trkpt>
      <trkpt lat="48.42696" lon="7.32057">
        <ele>925</ele>
        <time>2020-05-17T14:00:06Z</time>
      </trkpt>
      <trkpt lat="48.42686" lon="7.32138">
        <ele>924</ele>
        <time>2020-05-17T14:00:06Z</time>
      </trkpt>
      <trkpt lat="48.42672" lon="7.32142">
        <ele>924</ele>
        <time>2020-05-17T14:00:06Z</time>
      </trkpt>
      <trkpt lat="48.42658" lon="7.32149">
        <ele>923</ele>
        <time>2020-05-17T14:00:06Z</time>
      </trkpt>
      <trkpt lat="48.42658" lon="7.32149">
        <ele>920</ele>
        <time>2020-05-17T14:00:06Z</time>
      </trkpt>
      <trkpt lat="48.42635" lon="7.32174">
        <ele>920</ele>
        <time>2020-05-17T14:00:06Z</time>
      </trkpt>
      <trkpt lat="48.42536" lon="7.32252">
        <ele>917</ele>
        <time>2020-05-17T14:00:06Z</time>
      </trkpt>
      <trkpt lat="48.42536" lon="7.32252">
        <ele>911</ele>
        <time>2020-05-17T14:00:06Z</time>
      </trkpt>
      <trkpt lat="48.42476" lon="7.32322">
        <ele>910</ele>
        <time>2020-05-17T14:00:06Z</time>
      </trkpt>
      <trkpt lat="48.42439" lon="7.32376">
        <ele>908</ele>
        <time>2020-05-17T14:00:06Z</time>
      </trkpt>
      <trkpt lat="48.42439" lon="7.32376">
        <ele>903</ele>
        <time>2020-05-17T14:00:06Z</time>
      </trkpt>
      <trkpt lat="48.42435" lon="7.32386">
        <ele>903</ele>
        <time>2020-05-17T14:00:06Z</time>
      </trkpt>
      <trkpt lat="48.42374" lon="7.32493">
        <ele>902</ele>
        <time>2020-05-17T14:00:06Z</time>
      </trkpt>
      <trkpt lat="48.42362" lon="7.32501">
        <ele>901</ele>
        <time>2020-05-17T14:00:06Z</time>
      </trkpt>
      <trkpt lat="48.42362" lon="7.32501">
        <ele>897</ele>
        <time>2020-05-17T14:00:06Z</time>
      </trkpt>
      <trkpt lat="48.42271" lon="7.32565">
        <ele>895</ele>
        <time>2020-05-17T14:00:06Z</time>
      </trkpt>
      <trkpt lat="48.42271" lon="7.32565">
        <ele>889</ele>
        <time>2020-05-17T14:00:06Z</time>
      </trkpt>
      <trkpt lat="48.42174" lon="7.32634">
        <ele>887</ele>
        <time>2020-05-17T14:00:06Z</time>
      </trkpt>
      <trkpt lat="48.42174" lon="7.32634">
        <ele>883</ele>
        <time>2020-05-17T14:00:06Z</time>
      </trkpt>
      <trkpt lat="48.42165" lon="7.32642">
        <ele>883</ele>
        <time>2020-05-17T14:00:06Z</time>
      </trkpt>
      <trkpt lat="48.42143" lon="7.32655">
        <ele>883</ele>
        <time>2020-05-17T14:00:06Z</time>
      </trkpt>
      <trkpt lat="48.42102" lon="7.32692">
        <ele>881</ele>
        <time>2020-05-17T14:00:06Z</time>
      </trkpt>
      <trkpt lat="48.42083" lon="7.32728">
        <ele>880</ele>
        <time>2020-05-17T14:00:06Z</time>
      </trkpt>
      <trkpt lat="48.42083" lon="7.32728">
        <ele>876</ele>
        <time>2020-05-17T14:00:06Z</time>
      </trkpt>
      <trkpt lat="48.42057" lon="7.32798">
        <ele>876</ele>
        <time>2020-05-17T14:00:06Z</time>
      </trkpt>
      <trkpt lat="48.42019" lon="7.32859">
        <ele>867</ele>
        <time>2020-05-17T14:00:06Z</time>
      </trkpt>
      <trkpt lat="48.42012" lon="7.32913">
        <ele>867</ele>
        <time>2020-05-17T14:00:06Z</time>
      </trkpt>
      <trkpt lat="48.42012" lon="7.32913">
        <ele>867</ele>
        <time>2020-05-17T14:00:06Z</time>
      </trkpt>
      <trkpt lat="48.41998" lon="7.33025">
        <ele>866</ele>
        <time>2020-05-17T14:00:06Z</time>
      </trkpt>
      <trkpt lat="48.41997" lon="7.33063">
        <ele>866</ele>
        <time>2020-05-17T14:00:06Z</time>
      </trkpt>
      <trkpt lat="48.41997" lon="7.33063">
        <ele>864</ele>
        <time>2020-05-17T14:00:06Z</time>
      </trkpt>
      <trkpt lat="48.42001" lon="7.33186">
        <ele>863</ele>
        <time>2020-05-17T14:00:06Z</time>
      </trkpt>
      <trkpt lat="48.42011" lon="7.33243">
        <ele>862</ele>
        <time>2020-05-17T14:00:06Z</time>
      </trkpt>
      <trkpt lat="48.42006" lon="7.33273">
        <ele>861</ele>
        <time>2020-05-17T14:00:06Z</time>
      </trkpt>
      <trkpt lat="48.42009" lon="7.33307">
        <ele>860</ele>
        <time>2020-05-17T14:00:06Z</time>
      </trkpt>
      <trkpt lat="48.42009" lon="7.33307">
        <ele>857</ele>
        <time>2020-05-17T14:00:06Z</time>
      </trkpt>
      <trkpt lat="48.42029" lon="7.33496">
        <ele>855</ele>
        <time>2020-05-17T14:00:06Z</time>
      </trkpt>
      <trkpt lat="48.42029" lon="7.33496">
        <ele>850</ele>
        <time>2020-05-17T14:00:06Z</time>
      </trkpt>
      <trkpt lat="48.42041" lon="7.33561">
        <ele>849</ele>
        <time>2020-05-17T14:00:06Z</time>
      </trkpt>
      <trkpt lat="48.42067" lon="7.33608">
        <ele>848</ele>
        <time>2020-05-17T14:00:06Z</time>
      </trkpt>
      <trkpt lat="48.42071" lon="7.33664">
        <ele>847</ele>
        <time>2020-05-17T14:00:06Z</time>
      </trkpt>
      <trkpt lat="48.42071" lon="7.33664">
        <ele>842</ele>
        <time>2020-05-17T14:00:06Z</time>
      </trkpt>
      <trkpt lat="48.42071" lon="7.33685">
        <ele>842</ele>
        <time>2020-05-17T14:00:06Z</time>
      </trkpt>
      <trkpt lat="48.42057" lon="7.33744">
        <ele>841</ele>
        <time>2020-05-17T14:00:06Z</time>
      </trkpt>
      <trkpt lat="48.42054" lon="7.33848">
        <ele>839</ele>
        <time>2020-05-17T14:00:06Z</time>
      </trkpt>
      <trkpt lat="48.42054" lon="7.33848">
        <ele>834</ele>
        <time>2020-05-17T14:00:06Z</time>
      </trkpt>
      <trkpt lat="48.42051" lon="7.33915">
        <ele>833</ele>
        <time>2020-05-17T14:00:06Z</time>
      </trkpt>
      <trkpt lat="48.42054" lon="7.34011">
        <ele>832</ele>
        <time>2020-05-17T14:00:06Z</time>
      </trkpt>
      <trkpt lat="48.42054" lon="7.34011">
        <ele>828</ele>
        <time>2020-05-17T14:00:06Z</time>
      </trkpt>
      <trkpt lat="48.42027" lon="7.34194">
        <ele>827</ele>
        <time>2020-05-17T14:00:06Z</time>
      </trkpt>
      <trkpt lat="48.4202" lon="7.34213">
        <ele>826</ele>
        <time>2020-05-17T14:00:06Z</time>
      </trkpt>
      <trkpt lat="48.4202" lon="7.34213">
        <ele>822</ele>
        <time>2020-05-17T14:00:06Z</time>
      </trkpt>
      <trkpt lat="48.42013" lon="7.34227">
        <ele>822</ele>
        <time>2020-05-17T14:00:06Z</time>
      </trkpt>
      <trkpt lat="48.41926" lon="7.34337">
        <ele>820</ele>
        <time>2020-05-17T14:00:06Z</time>
      </trkpt>
      <trkpt lat="48.41926" lon="7.34337">
        <ele>816</ele>
        <time>2020-05-17T14:00:06Z</time>
      </trkpt>
      <trkpt lat="48.41832" lon="7.34428">
        <ele>813</ele>
        <time>2020-05-17T14:00:06Z</time>
      </trkpt>
      <trkpt lat="48.41832" lon="7.34428">
        <ele>805</ele>
        <time>2020-05-17T14:00:06Z</time>
      </trkpt>
      <trkpt lat="48.41799" lon="7.34467">
        <ele>803</ele>
        <time>2020-05-17T14:00:06Z</time>
      </trkpt>
      <trkpt lat="48.41784" lon="7.34501">
        <ele>802</ele>
        <time>2020-05-17T14:00:06Z</time>
      </trkpt>
      <trkpt lat="48.41784" lon="7.34501">
        <ele>798</ele>
        <time>2020-05-17T14:00:06Z</time>
      </trkpt>
      <trkpt lat="48.41772" lon="7.34559">
        <ele>798</ele>
        <time>2020-05-17T14:00:06Z</time>
      </trkpt>
      <trkpt lat="48.41744" lon="7.34608">
        <ele>799</ele>
        <time>2020-05-17T14:00:06Z</time>
      </trkpt>
      <trkpt lat="48.41744" lon="7.34608">
        <ele>800</ele>
        <time>2020-05-17T14:00:06Z</time>
      </trkpt>
      <trkpt lat="48.41718" lon="7.34645">
        <ele>799</ele>
        <time>2020-05-17T14:00:06Z</time>
      </trkpt>
      <trkpt lat="48.41661" lon="7.34694">
        <ele>799</ele>
        <time>2020-05-17T14:00:06Z</time>
      </trkpt>
      <trkpt lat="48.41661" lon="7.34694">
        <ele>796</ele>
        <time>2020-05-17T14:00:06Z</time>
      </trkpt>
      <trkpt lat="48.41617" lon="7.34719">
        <ele>796</ele>
        <time>2020-05-17T14:00:06Z</time>
      </trkpt>
      <trkpt lat="48.41584" lon="7.34767">
        <ele>796</ele>
        <time>2020-05-17T14:00:06Z</time>
      </trkpt>
      <trkpt lat="48.41584" lon="7.34767">
        <ele>796</ele>
        <time>2020-05-17T14:00:06Z</time>
      </trkpt>
      <trkpt lat="48.41558" lon="7.34767">
        <ele>795</ele>
        <time>2020-05-17T14:00:06Z</time>
      </trkpt>
      <trkpt lat="48.41518" lon="7.34867">
        <ele>794</ele>
        <time>2020-05-17T14:00:06Z</time>
      </trkpt>
      <trkpt lat="48.41507" lon="7.34891">
        <ele>793</ele>
        <time>2020-05-17T14:00:06Z</time>
      </trkpt>
      <trkpt lat="48.41448" lon="7.35054">
        <ele>788</ele>
        <time>2020-05-17T14:00:06Z</time>
      </trkpt>
      <trkpt lat="48.41415" lon="7.35059">
        <ele>785</ele>
        <time>2020-05-17T14:00:06Z</time>
      </trkpt>
      <trkpt lat="48.41409" lon="7.35067">
        <ele>784</ele>
        <time>2020-05-17T14:00:06Z</time>
      </trkpt>
      <trkpt lat="48.41399" lon="7.35071">
        <ele>780</ele>
        <time>2020-05-17T14:00:06Z</time>
      </trkpt>
      <trkpt lat="48.41399" lon="7.35071">
        <ele>780</ele>
        <time>2020-05-17T14:00:06Z</time>
      </trkpt>
      <trkpt lat="48.41399" lon="7.34994">
        <ele>780</ele>
        <time>2020-05-17T14:00:06Z</time>
      </trkpt>
      <trkpt lat="48.41399" lon="7.34994">
        <ele>780</ele>
        <time>2020-05-17T14:00:06Z</time>
      </trkpt>
      <trkpt lat="48.41403" lon="7.34952">
        <ele>780</ele>
        <time>2020-05-17T14:00:06Z</time>
      </trkpt>
      <trkpt lat="48.41333" lon="7.34962">
        <ele>780</ele>
        <time>2020-05-17T14:00:06Z</time>
      </trkpt>
      <trkpt lat="48.41297" lon="7.34977">
        <ele>780</ele>
        <time>2020-05-17T14:00:06Z</time>
      </trkpt>
      <trkpt lat="48.41297" lon="7.34977">
        <ele>781</ele>
        <time>2020-05-17T14:00:06Z</time>
      </trkpt>
      <trkpt lat="48.41174" lon="7.35046">
        <ele>782</ele>
        <time>2020-05-17T14:00:06Z</time>
      </trkpt>
      <trkpt lat="48.41174" lon="7.35046">
        <ele>783</ele>
        <time>2020-05-17T14:00:06Z</time>
      </trkpt>
      <trkpt lat="48.41086" lon="7.35088">
        <ele>783</ele>
        <time>2020-05-17T14:00:06Z</time>
      </trkpt>
      <trkpt lat="48.41083" lon="7.35106">
        <ele>783</ele>
        <time>2020-05-17T14:00:06Z</time>
      </trkpt>
      <trkpt lat="48.41083" lon="7.35106">
        <ele>785</ele>
        <time>2020-05-17T14:00:06Z</time>
      </trkpt>
      <trkpt lat="48.41086" lon="7.35088">
        <ele>784</ele>
        <time>2020-05-17T14:00:06Z</time>
      </trkpt>
      <trkpt lat="48.41054" lon="7.35102">
        <ele>784</ele>
        <time>2020-05-17T14:00:06Z</time>
      </trkpt>
      <trkpt lat="48.41023" lon="7.35099">
        <ele>784</ele>
        <time>2020-05-17T14:00:06Z</time>
      </trkpt>
      <trkpt lat="48.40979" lon="7.35086">
        <ele>784</ele>
        <time>2020-05-17T14:00:06Z</time>
      </trkpt>
      <trkpt lat="48.40969" lon="7.35088">
        <ele>784</ele>
        <time>2020-05-17T14:00:06Z</time>
      </trkpt>
      <trkpt lat="48.40969" lon="7.35088">
        <ele>783</ele>
        <time>2020-05-17T14:00:06Z</time>
      </trkpt>
      <trkpt lat="48.40884" lon="7.3511">
        <ele>783</ele>
        <time>2020-05-17T14:00:06Z</time>
      </trkpt>
      <trkpt lat="48.40884" lon="7.3511">
        <ele>783</ele>
        <time>2020-05-17T14:00:06Z</time>
      </trkpt>
      <trkpt lat="48.40865" lon="7.35118">
        <ele>783</ele>
        <time>2020-05-17T14:00:06Z</time>
      </trkpt>
      <trkpt lat="48.40847" lon="7.35134">
        <ele>783</ele>
        <time>2020-05-17T14:00:06Z</time>
      </trkpt>
      <trkpt lat="48.40839" lon="7.35146">
        <ele>783</ele>
        <time>2020-05-17T14:00:06Z</time>
      </trkpt>
      <trkpt lat="48.40838" lon="7.35161">
        <ele>783</ele>
        <time>2020-05-17T14:00:06Z</time>
      </trkpt>
      <trkpt lat="48.40838" lon="7.35161">
        <ele>783</ele>
        <time>2020-05-17T14:00:06Z</time>
      </trkpt>
      <trkpt lat="48.40884" lon="7.3532">
        <ele>782</ele>
        <time>2020-05-17T14:00:06Z</time>
      </trkpt>
      <trkpt lat="48.40884" lon="7.3532">
        <ele>780</ele>
        <time>2020-05-17T14:00:06Z</time>
      </trkpt>
      <trkpt lat="48.40896" lon="7.35387">
        <ele>779</ele>
        <time>2020-05-17T14:00:06Z</time>
      </trkpt>
      <trkpt lat="48.40901" lon="7.35466">
        <ele>778</ele>
        <time>2020-05-17T14:00:06Z</time>
      </trkpt>
      <trkpt lat="48.40901" lon="7.35466">
        <ele>774</ele>
        <time>2020-05-17T14:00:06Z</time>
      </trkpt>
      <trkpt lat="48.40938" lon="7.35608">
        <ele>774</ele>
        <time>2020-05-17T14:00:06Z</time>
      </trkpt>
      <trkpt lat="48.40938" lon="7.35608">
        <ele>772</ele>
        <time>2020-05-17T14:00:06Z</time>
      </trkpt>
      <trkpt lat="48.40961" lon="7.35757">
        <ele>770</ele>
        <time>2020-05-17T14:00:06Z</time>
      </trkpt>
      <trkpt lat="48.4098" lon="7.35771">
        <ele>769</ele>
        <time>2020-05-17T14:00:06Z</time>
      </trkpt>
      <trkpt lat="48.4098" lon="7.35771">
        <ele>767</ele>
        <time>2020-05-17T14:00:06Z</time>
      </trkpt>
      <trkpt lat="48.40923" lon="7.3572">
        <ele>765</ele>
        <time>2020-05-17T14:00:06Z</time>
      </trkpt>
      <trkpt lat="48.40916" lon="7.35697">
        <ele>763</ele>
        <time>2020-05-17T14:00:06Z</time>
      </trkpt>
      <trkpt lat="48.40907" lon="7.35646">
        <ele>763</ele>
        <time>2020-05-17T14:00:06Z</time>
      </trkpt>
      <trkpt lat="48.40901" lon="7.35629">
        <ele>762</ele>
        <time>2020-05-17T14:00:06Z</time>
      </trkpt>
      <trkpt lat="48.40901" lon="7.35629">
        <ele>760</ele>
        <time>2020-05-17T14:00:06Z</time>
      </trkpt>
      <trkpt lat="48.40883" lon="7.35588">
        <ele>760</ele>
        <time>2020-05-17T14:00:06Z</time>
      </trkpt>
      <trkpt lat="48.40857" lon="7.35558">
        <ele>759</ele>
        <time>2020-05-17T14:00:06Z</time>
      </trkpt>
      <trkpt lat="48.40841" lon="7.35509">
        <ele>759</ele>
        <time>2020-05-17T14:00:06Z</time>
      </trkpt>
      <trkpt lat="48.40841" lon="7.35509">
        <ele>757</ele>
        <time>2020-05-17T14:00:06Z</time>
      </trkpt>
      <trkpt lat="48.40823" lon="7.35483">
        <ele>757</ele>
        <time>2020-05-17T14:00:06Z</time>
      </trkpt>
      <trkpt lat="48.40761" lon="7.35432">
        <ele>753</ele>
        <time>2020-05-17T14:00:06Z</time>
      </trkpt>
      <trkpt lat="48.40761" lon="7.35432">
        <ele>742</ele>
        <time>2020-05-17T14:00:06Z</time>
      </trkpt>
      <trkpt lat="48.40689" lon="7.35386">
        <ele>740</ele>
        <time>2020-05-17T14:00:06Z</time>
      </trkpt>
      <trkpt lat="48.40663" lon="7.35382">
        <ele>738</ele>
        <time>2020-05-17T14:00:06Z</time>
      </trkpt>
      <trkpt lat="48.40656" lon="7.35385">
        <ele>730</ele>
        <time>2020-05-17T14:00:06Z</time>
      </trkpt>
      <trkpt lat="48.40656" lon="7.35385">
        <ele>730</ele>
        <time>2020-05-17T14:00:06Z</time>
      </trkpt>
      <trkpt lat="48.4063" lon="7.3535">
        <ele>731</ele>
        <time>2020-05-17T14:00:06Z</time>
      </trkpt>
      <trkpt lat="48.40603" lon="7.35381">
        <ele>729</ele>
        <time>2020-05-17T14:00:06Z</time>
      </trkpt>
      <trkpt lat="48.40596" lon="7.35376">
        <ele>728</ele>
        <time>2020-05-17T14:00:06Z</time>
      </trkpt>
      <trkpt lat="48.4058" lon="7.35352">
        <ele>727</ele>
        <time>2020-05-17T14:00:06Z</time>
      </trkpt>
      <trkpt lat="48.40536" lon="7.35264">
        <ele>726</ele>
        <time>2020-05-17T14:00:06Z</time>
      </trkpt>
      <trkpt lat="48.40562" lon="7.35303">
        <ele>726</ele>
        <time>2020-05-17T14:00:06Z</time>
      </trkpt>
      <trkpt lat="48.40493" lon="7.35179">
        <ele>726</ele>
        <time>2020-05-17T14:00:06Z</time>
      </trkpt>
      <trkpt lat="48.40493" lon="7.35179">
        <ele>724</ele>
        <time>2020-05-17T14:00:06Z</time>
      </trkpt>
      <trkpt lat="48.40476" lon="7.35141">
        <ele>724</ele>
        <time>2020-05-17T14:00:06Z</time>
      </trkpt>
      <trkpt lat="48.40473" lon="7.35124">
        <ele>724</ele>
        <time>2020-05-17T14:00:06Z</time>
      </trkpt>
      <trkpt lat="48.40473" lon="7.35096">
        <ele>725</ele>
        <time>2020-05-17T14:00:06Z</time>
      </trkpt>
      <trkpt lat="48.40478" lon="7.35072">
        <ele>725</ele>
        <time>2020-05-17T14:00:06Z</time>
      </trkpt>
      <trkpt lat="48.40468" lon="7.35037">
        <ele>725</ele>
        <time>2020-05-17T14:00:06Z</time>
      </trkpt>
      <trkpt lat="48.40468" lon="7.35037">
        <ele>723</ele>
        <time>2020-05-17T14:00:06Z</time>
      </trkpt>
      <trkpt lat="48.40463" lon="7.34958">
        <ele>721</ele>
        <time>2020-05-17T14:00:06Z</time>
      </trkpt>
      <trkpt lat="48.40464" lon="7.34945">
        <ele>718</ele>
        <time>2020-05-17T14:00:06Z</time>
      </trkpt>
      <trkpt lat="48.40503" lon="7.34852">
        <ele>715</ele>
        <time>2020-05-17T14:00:06Z</time>
      </trkpt>
      <trkpt lat="48.40516" lon="7.34827">
        <ele>714</ele>
        <time>2020-05-17T14:00:06Z</time>
      </trkpt>
      <trkpt lat="48.40516" lon="7.34827">
        <ele>707</ele>
        <time>2020-05-17T14:00:06Z</time>
      </trkpt>
      <trkpt lat="48.40537" lon="7.34775">
        <ele>707</ele>
        <time>2020-05-17T14:00:06Z</time>
      </trkpt>
      <trkpt lat="48.40567" lon="7.34768">
        <ele>707</ele>
        <time>2020-05-17T14:00:06Z</time>
      </trkpt>
      <trkpt lat="48.40575" lon="7.34781">
        <ele>707</ele>
        <time>2020-05-17T14:00:06Z</time>
      </trkpt>
      <trkpt lat="48.40583" lon="7.34784">
        <ele>708</ele>
        <time>2020-05-17T14:00:06Z</time>
      </trkpt>
      <trkpt lat="48.4059" lon="7.34779">
        <ele>708</ele>
        <time>2020-05-17T14:00:06Z</time>
      </trkpt>
      <trkpt lat="48.4059" lon="7.34779">
        <ele>708</ele>
        <time>2020-05-17T14:00:06Z</time>
      </trkpt>
      <trkpt lat="48.40583" lon="7.34784">
        <ele>708</ele>
        <time>2020-05-17T14:00:06Z</time>
      </trkpt>
      <trkpt lat="48.40575" lon="7.34781">
        <ele>708</ele>
        <time>2020-05-17T14:00:06Z</time>
      </trkpt>
      <trkpt lat="48.40569" lon="7.34773">
        <ele>708</ele>
        <time>2020-05-17T14:00:06Z</time>
      </trkpt>
      <trkpt lat="48.40567" lon="7.3476">
        <ele>708</ele>
        <time>2020-05-17T14:00:06Z</time>
      </trkpt>
      <trkpt lat="48.40599" lon="7.34634">
        <ele>706</ele>
        <time>2020-05-17T14:00:06Z</time>
      </trkpt>
      <trkpt lat="48.40599" lon="7.34621">
        <ele>704</ele>
        <time>2020-05-17T14:00:06Z</time>
      </trkpt>
      <trkpt lat="48.40599" lon="7.34621">
        <ele>697</ele>
        <time>2020-05-17T14:00:06Z</time>
      </trkpt>
      <trkpt lat="48.40603" lon="7.34556">
        <ele>695</ele>
        <time>2020-05-17T14:00:06Z</time>
      </trkpt>
      <trkpt lat="48.40601" lon="7.34488">
        <ele>692</ele>
        <time>2020-05-17T14:00:06Z</time>
      </trkpt>
      <trkpt lat="48.40604" lon="7.34475">
        <ele>690</ele>
        <time>2020-05-17T14:00:06Z</time>
      </trkpt>
      <trkpt lat="48.40604" lon="7.34475">
        <ele>681</ele>
        <time>2020-05-17T14:00:06Z</time>
      </trkpt>
      <trkpt lat="48.40664" lon="7.34355">
        <ele>673</ele>
        <time>2020-05-17T14:00:06Z</time>
      </trkpt>
      <trkpt lat="48.40664" lon="7.34355">
        <ele>651</ele>
        <time>2020-05-17T14:00:06Z</time>
      </trkpt>
      <trkpt lat="48.40674" lon="7.34334">
        <ele>650</ele>
        <time>2020-05-17T14:00:06Z</time>
      </trkpt>
      <trkpt lat="48.40695" lon="7.34379">
        <ele>649</ele>
        <time>2020-05-17T14:00:06Z</time>
      </trkpt>
      <trkpt lat="48.40708" lon="7.34392">
        <ele>648</ele>
        <time>2020-05-17T14:00:06Z</time>
      </trkpt>
      <trkpt lat="48.40715" lon="7.34393">
        <ele>647</ele>
        <time>2020-05-17T14:00:06Z</time>
      </trkpt>
      <trkpt lat="48.40715" lon="7.34393">
        <ele>643</ele>
        <time>2020-05-17T14:00:06Z</time>
      </trkpt>
      <trkpt lat="48.40726" lon="7.34388">
        <ele>643</ele>
        <time>2020-05-17T14:00:06Z</time>
      </trkpt>
      <trkpt lat="48.40778" lon="7.3432">
        <ele>642</ele>
        <time>2020-05-17T14:00:06Z</time>
      </trkpt>
      <trkpt lat="48.40778" lon="7.3432">
        <ele>637</ele>
        <time>2020-05-17T14:00:06Z</time>
      </trkpt>
      <trkpt lat="48.40793" lon="7.34293">
        <ele>636</ele>
        <time>2020-05-17T14:00:06Z</time>
      </trkpt>
      <trkpt lat="48.408" lon="7.34285">
        <ele>636</ele>
        <time>2020-05-17T14:00:06Z</time>
      </trkpt>
      <trkpt lat="48.40827" lon="7.34282">
        <ele>634</ele>
        <time>2020-05-17T14:00:06Z</time>
      </trkpt>
      <trkpt lat="48.40827" lon="7.34282">
        <ele>634</ele>
        <time>2020-05-17T14:00:06Z</time>
      </trkpt>
      <trkpt lat="48.40842" lon="7.34281">
        <ele>634</ele>
        <time>2020-05-17T14:00:06Z</time>
      </trkpt>
      <trkpt lat="48.40868" lon="7.34289">
        <ele>633</ele>
        <time>2020-05-17T14:00:06Z</time>
      </trkpt>
      <trkpt lat="48.40875" lon="7.34289">
        <ele>633</ele>
        <time>2020-05-17T14:00:06Z</time>
      </trkpt>
      <trkpt lat="48.40882" lon="7.34285">
        <ele>632</ele>
        <time>2020-05-17T14:00:06Z</time>
      </trkpt>
      <trkpt lat="48.40898" lon="7.3429">
        <ele>632</ele>
        <time>2020-05-17T14:00:06Z</time>
      </trkpt>
      <trkpt lat="48.40898" lon="7.3429">
        <ele>630</ele>
        <time>2020-05-17T14:00:06Z</time>
      </trkpt>
      <trkpt lat="48.40882" lon="7.34285">
        <ele>630</ele>
        <time>2020-05-17T14:00:06Z</time>
      </trkpt>
      <trkpt lat="48.40878" lon="7.3427">
        <ele>629</ele>
        <time>2020-05-17T14:00:06Z</time>
      </trkpt>
      <trkpt lat="48.40853" lon="7.3425">
        <ele>629</ele>
        <time>2020-05-17T14:00:06Z</time>
      </trkpt>
      <trkpt lat="48.40811" lon="7.34233">
        <ele>627</ele>
        <time>2020-05-17T14:00:06Z</time>
      </trkpt>
      <trkpt lat="48.40801" lon="7.3423">
        <ele>626</ele>
        <time>2020-05-17T14:00:06Z</time>
      </trkpt>
      <trkpt lat="48.40801" lon="7.3423">
        <ele>622</ele>
        <time>2020-05-17T14:00:06Z</time>
      </trkpt>
      <trkpt lat="48.40765" lon="7.34227">
        <ele>621</ele>
        <time>2020-05-17T14:00:06Z</time>
      </trkpt>
      <trkpt lat="48.40721" lon="7.342">
        <ele>619</ele>
        <time>2020-05-17T14:00:06Z</time>
      </trkpt>
      <trkpt lat="48.40721" lon="7.342">
        <ele>613</ele>
        <time>2020-05-17T14:00:06Z</time>
      </trkpt>
      <trkpt lat="48.40713" lon="7.34123">
        <ele>611</ele>
        <time>2020-05-17T14:00:06Z</time>
      </trkpt>
      <trkpt lat="48.40684" lon="7.3404">
        <ele>609</ele>
        <time>2020-05-17T14:00:06Z</time>
      </trkpt>
      <trkpt lat="48.40677" lon="7.34027">
        <ele>608</ele>
        <time>2020-05-17T14:00:06Z</time>
      </trkpt>
      <trkpt lat="48.40639" lon="7.3399">
        <ele>607</ele>
        <time>2020-05-17T14:00:06Z</time>
      </trkpt>
      <trkpt lat="48.40639" lon="7.3399">
        <ele>604</ele>
        <time>2020-05-17T14:00:06Z</time>
      </trkpt>
      <trkpt lat="48.406" lon="7.33953">
        <ele>604</ele>
        <time>2020-05-17T14:00:06Z</time>
      </trkpt>
      <trkpt lat="48.40573" lon="7.33938">
        <ele>604</ele>
        <time>2020-05-17T14:00:06Z</time>
      </trkpt>
      <trkpt lat="48.40573" lon="7.33938">
        <ele>603</ele>
        <time>2020-05-17T14:00:06Z</time>
      </trkpt>
      <trkpt lat="48.40516" lon="7.3391">
        <ele>602</ele>
        <time>2020-05-17T14:00:06Z</time>
      </trkpt>
      <trkpt lat="48.40479" lon="7.33861">
        <ele>602</ele>
        <time>2020-05-17T14:00:06Z</time>
      </trkpt>
      <trkpt lat="48.40479" lon="7.33861">
        <ele>601</ele>
        <time>2020-05-17T14:00:06Z</time>
      </trkpt>
      <trkpt lat="48.40408" lon="7.33805">
        <ele>598</ele>
        <time>2020-05-17T14:00:06Z</time>
      </trkpt>
      <trkpt lat="48.40408" lon="7.33805">
        <ele>590</ele>
        <time>2020-05-17T14:00:06Z</time>
      </trkpt>
      <trkpt lat="48.40374" lon="7.33775">
        <ele>588</ele>
        <time>2020-05-17T14:00:06Z</time>
      </trkpt>
      <trkpt lat="48.40374" lon="7.33775">
        <ele>585</ele>
        <time>2020-05-17T14:00:06Z</time>
      </trkpt>
      <trkpt lat="48.40373" lon="7.33762">
        <ele>585</ele>
        <time>2020-05-17T14:00:06Z</time>
      </trkpt>
      <trkpt lat="48.40399" lon="7.3375">
        <ele>586</ele>
        <time>2020-05-17T14:00:06Z</time>
      </trkpt>
      <trkpt lat="48.40409" lon="7.33738">
        <ele>587</ele>
        <time>2020-05-17T14:00:06Z</time>
      </trkpt>
      <trkpt lat="48.40433" lon="7.33681">
        <ele>589</ele>
        <time>2020-05-17T14:00:06Z</time>
      </trkpt>
      <trkpt lat="48.40433" lon="7.33681">
        <ele>599</ele>
        <time>2020-05-17T14:00:06Z</time>
      </trkpt>
      <trkpt lat="48.40434" lon="7.33663">
        <ele>599</ele>
        <time>2020-05-17T14:00:06Z</time>
      </trkpt>
      <trkpt lat="48.40424" lon="7.33639">
        <ele>600</ele>
        <time>2020-05-17T14:00:06Z</time>
      </trkpt>
      <trkpt lat="48.4041" lon="7.33589">
        <ele>600</ele>
        <time>2020-05-17T14:00:06Z</time>
      </trkpt>
      <trkpt lat="48.40371" lon="7.33522">
        <ele>600</ele>
        <time>2020-05-17T14:00:06Z</time>
      </trkpt>
      <trkpt lat="48.40371" lon="7.33522">
        <ele>600</ele>
        <time>2020-05-17T14:00:06Z</time>
      </trkpt>
      <trkpt lat="48.40364" lon="7.33516">
        <ele>600</ele>
        <time>2020-05-17T14:00:06Z</time>
      </trkpt>
      <trkpt lat="48.40311" lon="7.33423">
        <ele>601</ele>
        <time>2020-05-17T14:00:06Z</time>
      </trkpt>
      <trkpt lat="48.40311" lon="7.33423">
        <ele>604</ele>
        <time>2020-05-17T14:00:06Z</time>
      </trkpt>
      <trkpt lat="48.40293" lon="7.33382">
        <ele>604</ele>
        <time>2020-05-17T14:00:06Z</time>
      </trkpt>
      <trkpt lat="48.4028" lon="7.33334">
        <ele>602</ele>
        <time>2020-05-17T14:00:06Z</time>
      </trkpt>
      <trkpt lat="48.40297" lon="7.33243">
        <ele>600</ele>
        <time>2020-05-17T14:00:06Z</time>
      </trkpt>
      <trkpt lat="48.40297" lon="7.33243">
        <ele>594</ele>
        <time>2020-05-17T14:00:06Z</time>
      </trkpt>
      <trkpt lat="48.40314" lon="7.33157">
        <ele>593</ele>
        <time>2020-05-17T14:00:06Z</time>
      </trkpt>
      <trkpt lat="48.40318" lon="7.33146">
        <ele>593</ele>
        <time>2020-05-17T14:00:06Z</time>
      </trkpt>
      <trkpt lat="48.40324" lon="7.33137">
        <ele>593</ele>
        <time>2020-05-17T14:00:06Z</time>
      </trkpt>
      <trkpt lat="48.40331" lon="7.33134">
        <ele>593</ele>
        <time>2020-05-17T14:00:06Z</time>
      </trkpt>
      <trkpt lat="48.40339" lon="7.33134">
        <ele>592</ele>
        <time>2020-05-17T14:00:06Z</time>
      </trkpt>
    </trkseg>
  </trk>
</gpx>